Location: Avon Lake
(41.5219°N, 93.5010°W)
Time: 23:52:49
(UTC+00:00)

Envisat - Visible Passes

Search period start: 20 February 2024 00:00
Search period end: 01 March 2024 00:00
Orbit: 762 x 764 km, 98.3° (Epoch: 20 February)

Date Brightness Start Highest point End Pass type
(mag) Time Alt. Az. Time Alt. Az. Time Alt. Az.
20 Feb 5.4 10:01:49 10° N 10:02:23 13° N 10:02:23 13° N visible
21 Feb 5.8 09:24:34 10° NNE 09:24:47 11° NNE 09:24:47 11° NNE visible
21 Feb 5.2 11:04:42 10° NNW 11:04:57 11° NNW 11:04:57 11° NNW visible
22 Feb 5.2 10:26:29 10° N 10:27:21 15° N 10:27:21 15° N visible
23 Feb 5.4 09:48:54 10° NNE 09:49:46 15° NNE 09:49:46 15° NNE visible
24 Feb 5.8 09:11:49 10° NNE 09:12:10 12° NNE 09:12:10 12° NNE visible
24 Feb 5.1 10:51:23 10° NNW 10:52:20 14° NNW 10:52:20 14° NNW visible
25 Feb 5.0 10:13:26 10° N 10:14:45 18° N 10:14:45 18° N visible
26 Feb 5.3 09:36:01 10° NNE 09:37:09 17° NNE 09:37:09 17° NNE visible
26 Feb 5.1 11:16:47 10° NNW 11:17:19 11° NW 11:17:19 11° NW visible
27 Feb 5.8 08:59:08 10° NNE 08:59:33 12° NE 08:59:33 12° NE visible
27 Feb 4.8 10:38:11 10° N 10:39:44 18° NNW 10:39:44 18° NNW visible
28 Feb 4.9 10:00:26 10° N 10:02:08 21° N 10:02:08 21° N visible
29 Feb 5.3 09:23:11 10° NNE 09:24:32 18° NNE 09:24:32 18° NNE visible
29 Feb 4.9 11:03:16 10° NNW 11:04:43 15° NW 11:04:43 15° NW visible
